Weather Roundup
Issued by NWS Chicago, IL

Home | Current Version | Previous Version | Graphics & Text | Print | Product List | Glossary On
Versions: 1 2 3 4 5 6 7 8 9 10 11 12 13 14 15 16 17 18 19 20 21 22 23 24 25 26 27 28 29 30 31 32 33 34 35 36 37 38 39 40 41 42 43 44 45 46 47 48 49 50
000
NZUS59 KLOT 220406
HRRLOT

CHICAGO AREA WEATHER ROUNDUP
NATIONAL WEATHER SERVICE CHICAGO/ROMEOVILLE IL
1100 PM CDT SUN SEP 21 2014

NOTE: "FAIR" INDICATES FEW OR NO CLOUDS BELOW 12,000 FEET WITH NO
SIGNIFICANT WEATHER AND/OR OBSTRUCTIONS TO VISIBILITY.

* THESE STATIONS ARE NOT UNDER NWS QUALITY CONTROL. THEY ALSO MAY NOT
  REPORT WEATHER SUCH AS PRECIPITATION OR FOG.

ILZ005-006-012>014-019>023-220500-
NORTHEAST ILLINOIS

CITY           SKY/WX    TMP DP  RH WIND       PRES   REMARKS
OHARE          CLEAR     54  44  69 N5        30.14R
MIDWAY         CLEAR     56  46  69 N8        30.13S
AURORA         CLEAR     47  43  86 NW5       30.15R
LANSING*       CLEAR     54  45  70 N3        30.13S
JOLIET*        CLEAR     52  49  90 CALM      30.15R
WAUKEGAN       CLEAR     49  42  77 NW6       30.14R
DUPAGE AIRPORT CLEAR     48  43  82 NE5       30.14R
WHEELING       CLEAR     50  45  83 CALM      30.16R
KANKAKEE*      CLEAR     53  49  87 CALM      30.14R
MORRIS*        CLEAR     50  48  93 CALM      30.14S
LEWIS AIRPORT* CLEAR     50  49  94 N5        30.14S
NORTHERLY IS     N/A     57  44  62 N10         N/A
$$

WIZ051-052-058>065-066-070>072-220500-
SOUTHEAST WISCONSIN

CITY           SKY/WX    TMP DP  RH WIND       PRES   REMARKS
MILWAUKEE      CLEAR     51  41  68 N8        30.15R
KENOSHA*       CLEAR     49  43  80 N6        30.15R
RACINE*        CLEAR     49  42  77 NW8       30.16R
BURLINGTON     CLEAR     42  42 100 CALM      30.16R FOG
WAUKESHA       CLEAR     45  41  87 N5        30.17R
WEST BEND      CLEAR     45  39  81 CALM      30.15F
$$

INZ001>003-010>013-019-020-220500-
NORTHWEST INDIANA

CITY           SKY/WX    TMP DP  RH WIND       PRES   REMARKS
GARY*          PTCLDY    59  45  59 N16G23    30.13R
MICHIGAN CITY* NOT AVBL
RENSSELAER*    NOT AVBL
VALPARAISO     MOCLDY    54  47  77 N5        30.11S
$$

LMZ740>746-220500-
SOUTHERN LAKE MICHIGAN

STATION/POSITION TIME  SKY/WX   TEMP WIND        PRES    VSBY
                                AIR  DIR/SP/G
                 (UTC)          (F)  (DEG/KT/KT) (MB)    (MI)
HARRISON CRIB    0400            58  350/ 17/ 20   N/A
BURNHAM HARBOR   0400            57  350/ 11/ 16   N/A
CALUMET HARBOR   0400            57  340/ 11/ 15 1018.9R
BURNS HARBOR     NOT AVBL
MICHIGAN CITY    0400            57  350/ 22/ 26   N/A
$$

ABBREVIATIONS USED IN REMARKS
   TC - TEMPERATURE IN CELSIUS
  WCI - WIND CHILL INDEX
   HX - HEAT INDEX
  VSB - VISIBILITY
$$



USA.gov is the U.S. government's official web portal to all federal, state and local government web resources and services.